Regional Weather Roundup
Issued by NWS

Home | Current Version | Previous Version | Graphics & Text | Print | Product List | Glossary On
Versions: 1 2 3 4 5 6 7 8 9 10 11 12 13 14 15 16 17 18 19 20 21 22 23 24 25 26 27 28 29 30 31 32 33 34 35 36 37 38 39 40 41 42 43 44 45 46 47 48 49 50
000
ASUS43 KLMK 191602
RWRKY
KENTUCKY REGIONAL WEATHER ROUNDUP
NATIONAL WEATHER SERVICE LOUISVILLE KY
1200 PM EDT FRI SEP 19 2014

NOTE "FAIR" INDICATES FEW OR NO CLOUDS BELOW 12,000 FEET
WITH NO SIGNIFICANT WEATHER AND/OR OBSTRUCTIONS TO VISIBILITY.

KYZ001>023-026-027-061>063-070>075-191700-
WESTERN AND SOUTH CENTRAL KENTUCKY

CITY           SKY/WX    TMP DP  RH WIND       PRES   REMARKS
PADUCAH        SUNNY     76  59  55 VRB3      30.09R
HENDERSON      SUNNY     72  54  53 E9        30.11F
OWENSBORO      SUNNY     73  56  55 E10       30.12F
HOPKINSVILLE   SUNNY     74  60  61 VRB5      30.08S
BOWLING GREEN  SUNNY     74  58  57 NE6       30.11R
GLASGOW        NOT AVBL
$$

KYZ024-025-028>034-038-045-046-053-191700-
NORTH CENTRAL KENTUCKY

CITY           SKY/WX    TMP DP  RH WIND       PRES   REMARKS
LOUISVILLE/SDF MOSUNNY   73  51  46 E10G26    30.14F
LOUISVILLE/LOU SUNNY     72  50  45 NE12      30.15S
FORT KNOX      SUNNY     68  55  61 NE7       30.13S
$$

KYZ035>037-039>044-047>052-055>060-089>105-191700-
NORTHEAST KENTUCKY

CITY           SKY/WX    TMP DP  RH WIND       PRES   REMARKS
LEXINGTON      SUNNY     71  51  49 E12       30.16S
COVINGTON      MOSUNNY   69  49  48 E9        30.19R
FRANKFORT      SUNNY     69  50  50 E10       30.15S
$$

KYZ054-064>069-076>088-106>120-191700-
SOUTHEAST KENTUCKY

CITY           SKY/WX    TMP DP  RH WIND       PRES   REMARKS
JACKSON        SUNNY     67  55  65 VRB3      30.16S
LONDON         SUNNY     72  57  59 CALM      30.14S
SOMERSET       SUNNY     72  55  56 SE5       30.14S
MIDDLESBORO    SUNNY     70  60  71 CALM      30.14F
MONTICELLO     SUNNY     73  60  63 CALM      30.14S
$$



USA.gov is the U.S. government's official web portal to all federal, state and local government web resources and services.